Location: Johnson City
(36.3130°N, 82.3540°W)
Time: 21:50:01
(UTC-04:00)

Envisat - Pass Details

Date: 19 February 2019
Orbit: 764 x 766 km, 98.2° (Epoch: 25 March)

Event Time Altitude Azimuth Distance (km) Brightness Sun altitude
Rises 06:36:01 0° 37° (NE) 3,235 6.7 -8.1°
Reaches altitude 10° 06:39:56 10° 68° (ENE) 2,302 6.5 -7.3°
Maximum altitude 06:41:52 12° 91° (E) 2,155 7.0 -6.9°
Drops below altitude 10° 06:43:48 10° 114° (ESE) 2,295 7.0 -6.5°
Sets 06:47:41 0° 144° (SE) 3,215 7.0 -5.8°
